Stations météo

réclame
Mon MeteoGroup
Liscombe, Grande-Bretagne (3710): Température de l'air & dewpoint: 17.10.2018 21:00:00 - 23.10.2018 21:00:00 (BST)Liscombe, Grande-Bretagne (3710): Température de l'air -20cm & Température de l'air -100cm: 17.10.2018 21:00:00 - 23.10.2018 21:00:00 (BST)Liscombe, Grande-Bretagne (3710): Vitesse du vent: 17.10.2018 21:00:00 - 23.10.2018 21:00:00 (BST)Liscombe, Grande-Bretagne (3710): Direction du vent: 17.10.2018 21:00:00 - 23.10.2018 21:00:00 (BST)Liscombe, Grande-Bretagne (3710): reduced air pressure: 17.10.2018 21:00:00 - 23.10.2018 21:00:00 (BST)Liscombe, Grande-Bretagne (3710): visibility: 17.10.2018 21:00:00 - 23.10.2018 21:00:00 (BST)Liscombe, Grande-Bretagne (3710): Ensoleillement: 17.10.2018 21:00:00 - 23.10.2018 21:00:00 (BST)Liscombe, Grande-Bretagne (3710): Quantités de précipitations: 17.10.2018 21:00:00 - 23.10.2018 21:00:00 (BST)
Date & Time tt [°C] td [°C] tt -20cm [°C] tt -100cm [°C] ff [km/h] ff [knt] dd ppp [hPa] vv [km] sd [min] rr [mm]
23.10.2018 21:00:00 8,4 8,4 - - 15 8 NW 1034,3 13 0 0,0
23.10.2018 20:00:00 7,9 7,9 - - 13 7 WNW 1034,3 14 0 0,0
23.10.2018 19:00:00 8,9 8,9 - - 11 6 W 1034,0 12 0 0,0
23.10.2018 18:00:00 9,2 7,9 - - 9 5 W 1033,9 18 0 0,0
23.10.2018 17:00:00 10,9 8,7 - - 9 5 WNW 1033,6 22 12 0,0
23.10.2018 16:00:00 11,5 9,2 - - 13 7 WNW 1032,8 27 6 0,0
23.10.2018 15:00:00 11,8 9,0 - - 16 9 WNW 1032,4 26 0 0,0
23.10.2018 14:00:00 12,4 8,8 - - 18 10 WNW 1033,0 30 0 0,0
23.10.2018 13:00:00 12,5 9,0 - - 21 11 WNW 1033,0 30 6 0,0
23.10.2018 12:00:00 11,5 9,6 - - 18 10 WNW 1034,0 12 0 0,0
23.10.2018 11:00:00 10,0 7,8 - - 21 11 WNW 1034,7 21 18 0,0
23.10.2018 10:00:00 11,3 10,7 12,7 13,2 21 11 WNW 1034,8 24 24 0,0
23.10.2018 09:00:00 8,2 8,1 - - 21 11 WNW 1035,3 18 0 0,0
23.10.2018 08:00:00 7,6 6,8 - - 22 12 NW 1035,2 17 0 0,2
23.10.2018 07:00:00 6,7 6,7 - - 13 7 WNW 1035,7 7 0 0,0
23.10.2018 06:00:00 7,6 7,6 - - 13 7 W 1035,9 1,7 0 0,0
23.10.2018 05:00:00 5,9 5,9 - - 11 6 W 1036,6 10 0 0,0
23.10.2018 04:00:00 6,6 6,6 - - 9 5 WNW 1037,3 18 0 0,0
23.10.2018 03:00:00 6,5 6,5 - - 15 8 NW 1037,4 22 0 0,0
23.10.2018 02:00:00 5,1 5,1 - - 4 2 WSW 1038,6 20 0 0,0
23.10.2018 01:00:00 5,2 4,8 - - 9 5 NW 1039,3 25 - 0,0
23.10.2018 00:00:00 5,6 4,7 - - 16 9 NNW 1039,9 26 0 0,0
22.10.2018 23:00:00 5,9 5,3 - - 15 8 NNW 1040,0 19 0 0,0
22.10.2018 22:00:00 6,1 5,3 - - 21 11 NNW 1039,8 21 0 0,0
22.10.2018 21:00:00 6,5 5,4 - - 16 9 N 1040,1 21 0 0,0
22.10.2018 20:00:00 6,2 4,9 - - 13 7 N 1040,0 23 0 0,0
22.10.2018 19:00:00 7,1 4,7 - - 9 5 NNW 1039,9 24 0 0,0
22.10.2018 18:00:00 8,5 4,5 - - 9 5 NNW 1039,0 23 60 0,0
22.10.2018 17:00:00 11,1 5,0 - - 15 8 NNW 1038,5 28 60 0,0
22.10.2018 16:00:00 12,2 5,1 - - 16 9 N 1038,2 35 60 0,0
22.10.2018 15:00:00 13,1 6,0 - - 22 12 N 1038,6 35 60 0,0
22.10.2018 14:00:00 13,0 6,7 - - 21 11 N 1039,1 40 60 0,0
22.10.2018 13:00:00 12,2 6,1 - - 13 7 NNE 1039,0 35 60 0,0
22.10.2018 12:00:00 10,8 5,3 - - 18 10 NNE 1039,2 40 60 0,0
22.10.2018 11:00:00 10,0 5,3 - - 21 11 NNE 1039,3 40 60 0,0
22.10.2018 10:00:00 8,7 5,0 13,2 13,2 13 7 NE 1039,3 30 24 0,0
22.10.2018 09:00:00 6,2 3,9 - - 18 10 N 1038,9 30 0 0,0
22.10.2018 08:00:00 5,2 3,3 - - 22 12 N 1038,3 27 0 0,0
22.10.2018 07:00:00 5,2 3,3 - - 24 13 N 1037,3 29 0 0,0
22.10.2018 06:00:00 5,2 3,9 - - 21 11 NNE 1036,6 27 0 0,0
22.10.2018 05:00:00 5,6 3,6 - - 15 8 NNE 1036,1 28 0 0,0
22.10.2018 04:00:00 6,4 4,8 - - 21 11 N 1035,4 27 0 0,0
22.10.2018 03:00:00 7,5 5,6 - - 22 12 NNE 1035,0 30 0 0,0
22.10.2018 02:00:00 6,8 5,5 - - 16 9 N 1035,1 27 0 0,0
22.10.2018 01:00:00 7,4 5,9 - - 16 9 N 1034,5 30 - 0,0
22.10.2018 00:00:00 8,6 7,9 - - 24 13 NNE 1033,6 13 0 0,0
21.10.2018 23:00:00 9,5 9,3 - - 21 11 NNE 1032,7 16 0 0,2
21.10.2018 22:00:00 10,5 10,2 - - 18 10 NNW 1031,4 15 0 0,0
21.10.2018 21:00:00 11,1 10,9 - - 16 9 NNW 1030,7 24 0 0,0
21.10.2018 20:00:00 11,8 11,8 - - 18 10 NNW 1030,0 9 0 0,0
21.10.2018 19:00:00 11,6 11,6 - - 11 6 NNW 1029,4 2,1 0 0,0
21.10.2018 18:00:00 11,8 11,0 - - 15 8 NW 1028,8 11 0 0,0
21.10.2018 17:00:00 12,7 10,2 - - 9 5 WNW 1028,4 23 18 0,0
21.10.2018 16:00:00 15,6 10,6 - - 13 7 WNW 1027,7 30 60 0,0
21.10.2018 15:00:00 16,8 10,4 - - 11 6 WNW 1027,6 27 54 0,0
21.10.2018 14:00:00 17,4 11,9 - - 9 5 WNW 1027,7 30 60 0,0
21.10.2018 13:00:00 16,9 11,6 - - 9 5 WNW 1027,9 30 60 0,0
21.10.2018 12:00:00 15,1 12,1 - - 11 6 WNW 1028,5 23 36 0,0
21.10.2018 11:00:00 13,2 12,2 - - 9 5 WNW 1029,1 17 54 0,0
21.10.2018 10:00:00 12,0 12,0 13,0 13,2 8 4 WNW 1029,2 11 24 0,2
21.10.2018 09:00:00 8,9 8,9 - - 9 5 NW 1029,5 4,5 0 0,0
21.10.2018 08:00:00 7,8 7,8 - - 9 5 NW 1029,4 4,3 0 0,0
21.10.2018 07:00:00 7,3 7,3 - - 8 4 NW 1029,6 6 0 0,0
21.10.2018 06:00:00 8,0 8,0 - - 8 4 NW 1029,4 5 0 0,0
21.10.2018 05:00:00 7,3 7,3 - - 8 4 W 1029,8 3,3 0 0,0
21.10.2018 04:00:00 7,6 7,6 - - 5 3 W 1030,2 3,1 0 0,0
21.10.2018 03:00:00 8,2 8,2 - - 4 2 W 1030,7 10 0 0,0
21.10.2018 02:00:00 8,4 8,4 - - 2 1 NNW 1030,7 17 0 0,2
21.10.2018 01:00:00 7,8 7,8 - - 5 3 NNW 1031,1 16 - 0,0
21.10.2018 00:00:00 8,8 8,8 - - 9 5 NNW 1031,2 26 0 0,0
20.10.2018 23:00:00 8,4 8,4 - - 8 4 NNW 1031,7 15 0 0,0
20.10.2018 22:00:00 9,0 9,0 - - 9 5 N 1031,9 15 0 0,0
20.10.2018 21:00:00 9,4 9,4 - - 13 7 N 1031,9 7 0 0,0
20.10.2018 20:00:00 9,9 9,8 - - 11 6 NNW 1032,0 12 0 0,0
20.10.2018 19:00:00 10,4 9,2 - - 9 5 NNW 1031,7 25 6 0,0
20.10.2018 18:00:00 12,9 9,6 - - 8 4 NNW 1031,1 30 60 0,0
20.10.2018 17:00:00 16,1 11,1 - - 9 5 W 1030,6 45 60 0,0
20.10.2018 16:00:00 16,7 11,7 - - 8 4 W 1030,8 40 60 0,0
20.10.2018 15:00:00 16,5 10,9 - - 8 4 W 1031,2 40 60 0,0
20.10.2018 14:00:00 16,1 11,8 - - 9 5 SW 1031,2 40 60 0,0
20.10.2018 13:00:00 15,3 11,5 - - 9 5 SW 1032,1 14 54 0,0
20.10.2018 12:00:00 14,3 12,2 - - 8 4 WSW 1032,5 20 42 0,0
20.10.2018 11:00:00 13,6 12,5 - - 4 2 WSW 1032,4 22 60 -
20.10.2018 10:00:00 11,5 11,5 13,2 13,4 2 1 N 1032,4 25 24 0,0
20.10.2018 09:00:00 7,2 7,2 - - 4 2 NNW 1032,4 4,3 0 0,0
20.10.2018 08:00:00 8,0 8,0 - - 4 2 NNW 1031,8 4,8 0 0,0
20.10.2018 07:00:00 8,3 8,3 - - 8 4 NNW 1031,6 8 0 0,0
20.10.2018 06:00:00 7,6 7,6 - - 5 3 NW 1030,9 22 0 0,0
20.10.2018 05:00:00 7,5 7,5 - - 11 6 NNW 1030,8 35 0 0,0
20.10.2018 04:00:00 7,6 7,6 - - 9 5 NNW 1030,5 30 0 0,0
20.10.2018 03:00:00 7,3 6,5 - - 2 1 SW 1030,3 23 0 0,0
20.10.2018 02:00:00 7,7 7,4 - - 2 1 NNW 1030,2 40 0 0,0
20.10.2018 01:00:00 7,2 7,1 - - 4 2 NNW 1030,5 35 - 0,0
20.10.2018 00:00:00 7,5 7,5 - - 5 3 NNW 1030,0 35 0 0,0
19.10.2018 23:00:00 7,0 7,0 - - 5 3 NNW 1030,1 16 0 0,0
19.10.2018 22:00:00 7,3 7,1 - - 8 4 NNW 1029,8 15 0 0,0
19.10.2018 21:00:00 8,2 7,9 - - 5 3 N 1029,0 23 0 0,0
19.10.2018 20:00:00 8,8 8,0 - - 9 5 NNW 1029,0 19 0 0,0
19.10.2018 19:00:00 9,2 8,1 - - 9 5 NW 1028,3 22 0 0,0
19.10.2018 18:00:00 11,7 9,5 - - 11 6 NNW 1027,8 26 0 0,0
19.10.2018 17:00:00 13,3 9,3 - - 8 4 N 1026,8 35 0 0,0
19.10.2018 16:00:00 13,9 8,9 - - 5 3 NNW 1026,5 40 12 0,0
19.10.2018 15:00:00 14,7 9,6 - - 9 5 NNW 1026,3 40 0 0,0
19.10.2018 14:00:00 15,1 10,0 - - 8 4 N 1026,1 50 24 0,0
19.10.2018 13:00:00 15,0 9,0 - - 11 6 N 1026,4 50 36 0,0
19.10.2018 12:00:00 14,7 10,3 - - 5 3 WNW 1026,4 40 60 0,0
19.10.2018 11:00:00 12,4 11,1 - - 4 2 W 1026,6 23 60 0,0
19.10.2018 10:00:00 10,9 10,9 13,2 13,5 2 1 WNW 1026,5 16 30 0,0
19.10.2018 09:00:00 7,9 7,9 - - 2 1 NNW 1026,7 10 0 0,0
19.10.2018 08:00:00 6,7 6,7 - - 2 1 W 1026,7 4,6 0 0,0
19.10.2018 07:00:00 6,0 6,0 - - 2 1 NNW 1026,5 5 0 0,0
19.10.2018 06:00:00 6,3 6,3 - - 0 0 N 1026,4 9 0 0,2
19.10.2018 05:00:00 5,8 5,8 - - 4 2 ENE 1026,5 12 0 0,0
19.10.2018 04:00:00 6,1 6,1 - - 2 1 ESE 1026,6 11 0 0,0
19.10.2018 03:00:00 6,5 6,5 - - 8 4 E 1026,4 11 0 0,0
19.10.2018 02:00:00 6,8 6,8 - - 8 4 E 1026,7 11 0 0,0
19.10.2018 01:00:00 6,7 6,7 - - 5 3 E 1027,4 13 - 0,0
19.10.2018 00:00:00 7,4 7,2 - - 8 4 E 1027,0 16 0 0,0
18.10.2018 23:00:00 8,1 7,8 - - 11 6 E 1027,0 15 0 0,0
18.10.2018 22:00:00 8,3 8,3 - - 13 7 E 1026,9 9 0 0,0
18.10.2018 21:00:00 8,3 8,3 - - 18 10 ENE 1026,9 4,8 0 0,0
18.10.2018 20:00:00 8,4 8,4 - - 18 10 NE 1026,8 4,4 0 0,0
18.10.2018 19:00:00 8,3 8,3 - - 16 9 NE 1026,6 6 6 0,0
18.10.2018 18:00:00 8,9 8,1 - - 9 5 NE 1026,5 11 30 0,0
18.10.2018 17:00:00 10,8 9,1 - - 13 7 NE 1026,4 15 48 0,0
18.10.2018 16:00:00 11,7 9,1 - - 16 9 ENE 1026,5 21 54 0,0
18.10.2018 15:00:00 12,3 9,7 - - 11 6 NE 1026,4 22 48 0,0
18.10.2018 14:00:00 11,9 8,7 - - 11 6 ENE 1026,9 24 60 0,0
18.10.2018 13:00:00 11,7 9,5 - - 13 7 NE 1027,5 23 60 0,0
18.10.2018 12:00:00 11,0 8,8 - - 16 9 NE 1027,8 24 60 0,0
18.10.2018 11:00:00 9,8 8,6 - - 21 11 NE 1027,9 25 48 0,0
18.10.2018 10:00:00 8,5 7,9 13,7 13,5 21 11 NE 1028,1 26 0 0,0
18.10.2018 09:00:00 8,1 7,8 - - 18 10 NE 1027,8 18 0 0,0
18.10.2018 08:00:00 7,3 7,2 - - 16 9 NE 1027,6 19 0 0,0
18.10.2018 07:00:00 7,5 7,2 - - 21 11 NE 1027,0 20 0 0,0
18.10.2018 06:00:00 7,6 6,7 - - 21 11 NE 1026,5 24 0 0,0
18.10.2018 05:00:00 8,1 7,3 - - 24 13 NE 1026,2 23 0 0,0
18.10.2018 04:00:00 9,1 8,6 - - 22 12 NE 1026,4 19 0 0,0
18.10.2018 03:00:00 9,4 8,9 - - 22 12 ENE 1026,2 19 0 0,0
18.10.2018 02:00:00 9,6 9,0 - - 26 14 NE 1026,0 17 0 0,0
18.10.2018 01:00:00 10,0 9,4 - - 22 12 ENE 1025,6 19 - 0,0
18.10.2018 00:00:00 10,5 9,7 - - 24 13 ENE 1025,2 16 0 0,0
17.10.2018 23:00:00 10,9 10,0 - - 21 11 NE 1024,8 20 0 0,0
17.10.2018 22:00:00 11,2 10,8 - - 15 8 NNE 1024,2 18 0 0,0
17.10.2018 21:00:00 10,8 10,4 - - 11 6 N 1023,8 22 0 0,0

tt = Température de l'air
td = dewpoint
tt -20cm = Température de l'air -20cm
tt -100cm = Température de l'air -100cm
ff = Vitesse du vent
dd = Direction du vent
ppp = reduced air pressure
vv = visibility
sd = Ensoleillement
rr = Quantités de précipitations

stations d'obs. à proximité